Tracking 27122 objects as of 26-Mar-2023
HD Live streaming from Space Station
objects crossing your sky now

STARLINK-1872

Track STARLINK-1872 now!
10-day predictions
STARLINK-1872 is classified as:


NORAD ID: 46742
Int'l Code: 2020-074D
Perigee: 309.5 km
Apogee: 319.9 km
Inclination: 53.0 °
Period: 90.7 minutes
Semi major axis: 6685 km
RCS: Unknown
Launch date: October 24, 2020
Source: United States (US)
Launch site: AIR FORCE EASTERN TEST RANGE (AFETR)
Your satellite tracking list
Your tracking list is empty




NASA's NSSDC Master Catalog

Two Line Element Set (TLE):
1 46742U 20074D   23085.00001157  .00467456  00000-0  15887-2 0  9991
2 46742  53.0426  58.6177 0007818  90.4645 158.4273 15.88110099  1307
Source of the keplerian elements: AFSPC